Flag for Northern Mariana Islands Weather past 2 weeks in Saipan, Northern Mariana Islands

82 °F

Passing clouds.

Feels Like: 89 °F
Forecast: 76 / 81 °F
Wind: 16 mph from East

Location: Saipan International Airport

Current Time: Nov 30, 2015 at 4:42:13 PM

Latest Report: Nov 30, 2015 at 3:54 PM

Visibility: 10 mi

Pressure: 29.86 "Hg

Humidity: 82%

Dew point: 76 °F

Location of SaipanLocation

Historic Weather in Saipan — Graph


Saipan temperature yesterday

Maximum temperature yesterday: 86 °F (at 10:54 AM)
Minimum temperature yesterday: 78 °F (at 5:54 AM)
Average temperature yesterday: 82 °F

Past Weeks' High & Low Weather Summary

High87 °F (Nov 15, 2:54 PM)100% (Nov 18, 7:17 PM)30.05 "Hg (Nov 18, 7:17 PM)
Low77 °F (Nov 18, 6:01 PM)66% (Nov 29, 12:12 PM)29.81 "Hg (Nov 21, 1:29 PM)
Average82 °F83%29.93 "Hg
* Reported Nov 15 2:54 PM — Nov 30 2:54 PM, Saipan, Weather by CustomWeather, © 2015

Note: Actual official high and low records may vary slightly from our data, if they occured in-between our weather recording intervals... More about our weather records


Saipan weather history for previous 24 hours

Time TempWeatherWind HumidityBarometerVisibility
2:54 PM
Mon, Nov 30
77 °FLight rain. Broken clouds.9 mph96%29.86 "Hg8 mi
1:54 PM86 °FPassing clouds.20 mph67%29.92 "Hg10 mi
12:54 PM86 °FPassing clouds.20 mph67%29.94 "Hg10 mi
11:54 AM86 °FPassing clouds.17 mph70%29.96 "Hg10 mi
10:54 AM85 °FScattered clouds.21 mph75%29.98 "Hg10 mi
9:54 AM83 °FScattered clouds.15 mph74%30.01 "Hg10 mi
8:54 AM79 °FPartly sunny.14 mph88%30.02 "Hg10 mi
7:54 AM80 °FScattered clouds.15 mph87%30.00 "Hg10 mi
6:54 AM79 °FScattered clouds.15 mph84%29.98 "Hg10 mi
5:57 AM79 °FPassing clouds.13 mph89%29.91 "Hg10 mi
3:54 AMN/AN/AN/A29.89 "HgN/A
1:54 AM79 °FPassing clouds.12 mph88%29.97 "Hg10 mi
12:54 AM79 °FPassing clouds.12 mph88%29.98 "Hg10 mi
12:12 AM79 °FPassing clouds.12 mph89%29.93 "Hg10 mi
11:54 PM
Sun, Nov 29
80 °FMostly cloudy.13 mph85%29.99 "Hg10 mi
11:31 PM81 °FPassing clouds.17 mph84%29.93 "Hg10 mi
10:54 PM80 °FPassing clouds.15 mph81%30.00 "Hg10 mi
10:19 PM79 °FOvercast.16 mph84%29.94 "Hg10 mi
9:54 PM80 °FMostly cloudy.15 mph85%30.01 "Hg10 mi
8:54 PM80 °FMostly cloudy.14 mph85%30.00 "Hg10 mi
7:54 PM80 °FOvercast.15 mph79%29.98 "Hg10 mi
6:54 PM81 °FOvercast.16 mph79%29.96 "Hg10 mi
6:01 PM81 °FOvercast.18 mph79%29.88 "Hg10 mi
Weather by CustomWeather, © 2015

See weather overviewHow to use our weather pages